TimeCDT,TemperatureF,Dew PointF,Humidity,Sea Level PressureIn,VisibilityMPH,Wind Direction,Wind SpeedMPH,Gust SpeedMPH,PrecipitationIn,Events,Conditions,WindDirDegrees,DateUTC
12:53 AM,68.0,55.9,65,29.95,10.0,SE,5.8,-,N/A,,Clear,140,2013-07-04 05:53:00
1:53 AM,66.9,55.9,68,29.94,10.0,SSE,3.5,-,N/A,,Clear,160,2013-07-04 06:53:00
2:53 AM,66.9,55.9,68,29.94,10.0,SSE,4.6,-,N/A,,Clear,160,2013-07-04 07:53:00
3:53 AM,66.9,55.9,68,29.93,10.0,South,8.1,-,N/A,,Clear,180,2013-07-04 08:53:00
4:53 AM,66.9,55.9,68,29.94,10.0,South,9.2,-,N/A,,Mostly Cloudy,180,2013-07-04 09:53:00
5:53 AM,66.0,55.9,70,29.94,10.0,South,8.1,-,N/A,,Clear,180,2013-07-04 10:53:00
6:53 AM,66.9,57.0,70,29.94,10.0,SSW,9.2,-,N/A,,Partly Cloudy,200,2013-07-04 11:53:00
7:53 AM,70.0,57.0,63,29.95,10.0,SSW,9.2,-,N/A,,Scattered Clouds,210,2013-07-04 12:53:00
8:53 AM,72.0,59.0,64,29.95,10.0,SSW,5.8,-,N/A,,Partly Cloudy,200,2013-07-04 13:53:00
9:53 AM,77.0,60.1,56,29.93,10.0,SSW,6.9,-,N/A,,Clear,200,2013-07-04 14:53:00
10:53 AM,80.1,59.0,48,29.93,10.0,SSW,9.2,-,N/A,,Clear,210,2013-07-04 15:53:00
11:53 AM,82.9,61.0,47,29.91,10.0,South,6.9,-,N/A,,Clear,180,2013-07-04 16:53:00
12:53 PM,86.0,59.0,40,29.91,10.0,South,10.4,18.4,N/A,,Partly Cloudy,190,2013-07-04 17:53:00
1:53 PM,88.0,54.0,31,29.89,10.0,SSW,12.7,21.9,N/A,,Clear,200,2013-07-04 18:53:00
2:53 PM,89.1,54.0,30,29.87,10.0,South,11.5,20.7,N/A,,Clear,190,2013-07-04 19:53:00
3:53 PM,89.1,54.0,30,29.87,10.0,SSE,17.3,21.9,N/A,,Clear,160,2013-07-04 20:53:00
4:53 PM,89.1,54.0,30,29.86,10.0,South,11.5,18.4,N/A,,Partly Cloudy,190,2013-07-04 21:53:00
5:53 PM,88.0,52.0,29,29.85,10.0,South,15.0,-,N/A,,Clear,180,2013-07-04 22:53:00
6:53 PM,86.0,54.0,33,29.85,10.0,South,9.2,-,N/A,,Clear,190,2013-07-04 23:53:00
7:53 PM,84.0,54.0,35,29.84,10.0,South,10.4,-,N/A,,Clear,180,2013-07-05 00:53:00
8:53 PM,81.0,55.0,41,29.84,10.0,South,8.1,-,N/A,,Clear,170,2013-07-05 01:53:00
9:53 PM,78.1,55.9,46,29.86,10.0,SSE,8.1,-,N/A,,Clear,160,2013-07-05 02:53:00
10:53 PM,77.0,55.0,47,29.87,10.0,South,8.1,-,N/A,,Clear,180,2013-07-05 03:53:00
11:53 PM,75.9,55.0,48,29.87,10.0,South,8.1,-,N/A,,Clear,180,2013-07-05 04:53:00